• In Uzbekistan
  • List of Countries
  • For 7 days
  • Water Temperature
  • Satellite Maps
  • Weather Map
  • Weather Widgets
  • user-avatar
    Login

    Hourly Weather Kipungo

    Today, 6 December, Tuesday

    Time Temperature Precipitation Wind Pressure Humidity
    00:00 +21°C° 0 mm 1 mps 653 mmHg 91%
    01:00 +21°C° 0 mm 1 mps 653 mmHg 92%
    02:00 +20°C° 0 mm 1 mps 652 mmHg 93%
    03:00 +20°C° 0 mm 1 mps 652 mmHg 94%
    04:00 +20°C° 0 mm 1 mps 652 mmHg 95%
    05:00 +21°C° 0 mm 1 mps 653 mmHg 92%
    06:00 +21°C° 0 mm 1 mps 653 mmHg 89%
    07:00 +23°C° 0 mm 1 mps 654 mmHg 84%
    08:00 +24°C° 1.1 mm 1 mps 654 mmHg 78%
    09:00 +26°C° 1.1 mm 1 mps 654 mmHg 72%
    10:00 +28°C° 1.1 mm 1 mps 655 mmHg 66%
    11:00 +29°C° 0.9 mm 1 mps 655 mmHg 59%
    12:00 +31°C° 0.9 mm 1 mps 655 mmHg 52%
    13:00 +30°C° 0 mm 1 mps 655 mmHg 49%
    14:00 +30°C° 0.7 mm 1 mps 654 mmHg 51%
    15:00 +29°C° 0.7 mm 1 mps 654 mmHg 53%
    16:00 +29°C° 0.7 mm 1 mps 653 mmHg 55%
    17:00 +27°C° 1 mm 1 mps 653 mmHg 65%
    18:00 +25°C° 1 mm 2 mps 653 mmHg 75%
    19:00 +23°C° 1 mm 2 mps 653 mmHg 85%
    20:00 +21°C° 0.5 mm 2 mps 653 mmHg 87%
    21:00 +21°C° 0.5 mm 2 mps 653 mmHg 90%
    22:00 +20°C° 0.5 mm 2 mps 653 mmHg 92%
    23:00 +20°C° 0.9 mm 2 mps 653 mmHg 93%

    Tomorrow, 7 December, Wednesday

    Time Temperature Precipitation Wind Pressure Humidity
    00:00 +20°C° 0.9 mm 2 mps 653 mmHg 94%
    01:00 +20°C° 0.9 mm 2 mps 653 mmHg 95%
    02:00 +21°C° 2.8 mm 1 mps 653 mmHg 95%
    03:00 +20°C° 2.8 mm 1 mps 653 mmHg 95%
    04:00 +20°C° 2.8 mm 1 mps 653 mmHg 96%
    05:00 +21°C° 1.7 mm 1 mps 653 mmHg 95%
    06:00 +21°C° 1.7 mm 1 mps 654 mmHg 95%
    07:00 +21°C° 1.7 mm 1 mps 654 mmHg 95%
    08:00 +22°C° 0.1 mm 1 mps 654 mmHg 85%
    09:00 +24°C° 0.1 mm 1 mps 655 mmHg 76%
    10:00 +24°C° 0.1 mm 0 mps 655 mmHg 66%
    11:00 +28°C° 0 mm 1 mps 655 mmHg 58%
    12:00 +30°C° 0 mm 1 mps 655 mmHg 51%
    13:00 +31°C° 0 mm 1 mps 655 mmHg 43%
    14:00 +31°C° 0.1 mm 1 mps 654 mmHg 43%
    15:00 +31°C° 0.1 mm 1 mps 653 mmHg 43%
    16:00 +30°C° 0.1 mm 1 mps 653 mmHg 44%
    17:00 +28°C° 1.1 mm 1 mps 653 mmHg 56%
    18:00 +25°C° 1.1 mm 1 mps 652 mmHg 68%
    19:00 +23°C° 1.1 mm 1 mps 652 mmHg 80%
    20:00 +22°C° 0.6 mm 1 mps 652 mmHg 82%
    21:00 +22°C° 0.6 mm 1 mps 653 mmHg 84%
    22:00 +22°C° 0.6 mm 1 mps 653 mmHg 86%
    23:00 +21°C° 0.4 mm 1 mps 653 mmHg 88%

    Day after tomorrow, 8 December, Thursday

    Time Temperature Precipitation Wind Pressure Humidity
    00:00 +21°C° 0.4 mm 1 mps 653 mmHg 89%
    01:00 +20°C° 0.4 mm 1 mps 652 mmHg 91%
    02:00 +20°C° 0.1 mm 1 mps 652 mmHg 92%
    03:00 +20°C° 0.1 mm 1 mps 652 mmHg 93%
    04:00 +20°C° 0.1 mm 1 mps 652 mmHg 93%
    05:00 +20°C° 0 mm 1 mps 653 mmHg 92%
    06:00 +21°C° 0 mm 1 mps 653 mmHg 90%
    07:00 +22°C° 0 mm 1 mps 654 mmHg 89%
    08:00 +24°C° 0.2 mm 1 mps 654 mmHg 79%
    09:00 +26°C° 0.2 mm 1 mps 655 mmHg 69%
    10:00 +28°C° 0.2 mm 1 mps 655 mmHg 59%
    11:00 +29°C° 0.3 mm 1 mps 655 mmHg 55%
    12:00 +29°C° 0.3 mm 1 mps 654 mmHg 51%
    13:00 +29°C° 0.3 mm 2 mps 654 mmHg 48%
    14:00 +29°C° 0.6 mm 2 mps 653 mmHg 49%
    15:00 +29°C° 0.6 mm 2 mps 653 mmHg 50%
    16:00 +29°C° 0.6 mm 2 mps 653 mmHg 51%
    17:00 +27°C° 1 mm 2 mps 653 mmHg 62%
    18:00 +25°C° 1 mm 2 mps 652 mmHg 73%
    19:00 +21°C° 1 mm 2 mps 652 mmHg 84%
    20:00 +21°C° 0.3 mm 2 mps 653 mmHg 87%
    21:00 +20°C° 0.3 mm 2 mps 653 mmHg 89%
    22:00 +20°C° 0.3 mm 2 mps 653 mmHg 92%
    23:00 +20°C° 0.1 mm 2 mps 653 mmHg 93%

    9 December, Friday

    Time Temperature Precipitation Wind Pressure Humidity
    00:00 +20°C° 0.1 mm 1 mps 653 mmHg 94%
    01:00 +20°C° 0.1 mm 1 mps 652 mmHg 95%
    02:00 +20°C° 0.2 mm 1 mps 652 mmHg 95%
    03:00 +19°C° 0.2 mm 1 mps 652 mmHg 94%
    04:00 +19°C° 0.2 mm 1 mps 652 mmHg 94%
    05:00 +20°C° 0 mm 1 mps 653 mmHg 92%
    06:00 +21°C° 0 mm 1 mps 653 mmHg 90%
    07:00 +21°C° 0 mm 1 mps 654 mmHg 87%
    08:00 +24°C° 0.3 mm 1 mps 655 mmHg 77%
    09:00 +26°C° 0.3 mm 1 mps 655 mmHg 66%
    10:00 +29°C° 0.3 mm 1 mps 656 mmHg 56%
    11:00 +30°C° 0.2 mm 1 mps 655 mmHg 51%
    12:00 +31°C° 0.2 mm 1 mps 655 mmHg 46%
    13:00 +33°C° 0.2 mm 1 mps 655 mmHg 41%
    14:00 +31°C° 0.8 mm 1 mps 654 mmHg 46%
    15:00 +30°C° 0.8 mm 2 mps 653 mmHg 52%
    16:00 +29°C° 0.8 mm 2 mps 652 mmHg 57%
    17:00 +27°C° 0.6 mm 2 mps 652 mmHg 65%
    18:00 +25°C° 0.6 mm 2 mps 652 mmHg 74%
    19:00 +23°C° 0.6 mm 2 mps 652 mmHg 82%
    20:00 +21°C° 0.6 mm 2 mps 653 mmHg 85%
    21:00 +21°C° 0.6 mm 2 mps 653 mmHg 87%
    22:00 +20°C° 0.6 mm 2 mps 653 mmHg 90%
    23:00 +20°C° 0.2 mm 2 mps 653 mmHg 91%

    10 December, Saturday

    Time Temperature Precipitation Wind Pressure Humidity
    00:00 +19°C° 0.2 mm 2 mps 653 mmHg 93%
    01:00 +19°C° 0.2 mm 2 mps 652 mmHg 95%
    02:00 +19°C° 0.2 mm 2 mps 652 mmHg 95%
    03:00 +19°C° 0.2 mm 2 mps 652 mmHg 95%
    04:00 +19°C° 0.2 mm 2 mps 652 mmHg 95%
    05:00 +19°C° 0 mm 2 mps 652 mmHg 93%
    06:00 +21°C° 0 mm 1 mps 653 mmHg 91%
    07:00 +21°C° 0 mm 1 mps 654 mmHg 88%
    08:00 +24°C° 0 mm 2 mps 654 mmHg 76%
    09:00 +26°C° 0 mm 2 mps 655 mmHg 64%
    10:00 +28°C° 0 mm 2 mps 655 mmHg 52%
    11:00 +29°C° 0.2 mm 2 mps 654 mmHg 48%
    12:00 +30°C° 0.2 mm 2 mps 654 mmHg 45%
    13:00 +31°C° 0.2 mm 2 mps 653 mmHg 42%
    14:00 +31°C° 0.6 mm 2 mps 653 mmHg 47%
    15:00 +30°C° 0.6 mm 2 mps 652 mmHg 52%
    16:00 +29°C° 0.6 mm 2 mps 652 mmHg 57%
    17:00 +27°C° 0.3 mm 2 mps 652 mmHg 65%
    18:00 +25°C° 0.3 mm 2 mps 652 mmHg 74%
    19:00 +23°C° 0.3 mm 2 mps 652 mmHg 83%
    20:00 +21°C° 0.1 mm 2 mps 652 mmHg 85%
    21:00 +21°C° 0.1 mm 2 mps 652 mmHg 88%
    22:00 +20°C° 0.1 mm 2 mps 652 mmHg 90%
    23:00 +20°C° 0.3 mm 2 mps 652 mmHg 92%

    11 December, Sunday

    Time Temperature Precipitation Wind Pressure Humidity
    00:00 +19°C° 0.3 mm 2 mps 652 mmHg 94%
    01:00 +20°C° 0.3 mm 1 mps 652 mmHg 95%
    02:00 +20°C° 0.2 mm 1 mps 652 mmHg 95%
    03:00 +19°C° 0.2 mm 1 mps 651 mmHg 96%
    04:00 +19°C° 0.2 mm 1 mps 651 mmHg 96%
    05:00 +20°C° 0 mm 1 mps 652 mmHg 93%
    06:00 +21°C° 0 mm 1 mps 652 mmHg 91%
    07:00 +21°C° 0 mm 1 mps 653 mmHg 88%
    08:00 +24°C° 0 mm 1 mps 653 mmHg 76%
    09:00 +27°C° 0 mm 1 mps 654 mmHg 63%
    10:00 +30°C° 0 mm 1 mps 655 mmHg 50%
    11:00 +30°C° 1 mm 1 mps 654 mmHg 51%
    12:00 +30°C° 1 mm 1 mps 653 mmHg 52%
    13:00 +30°C° 1 mm 1 mps 652 mmHg 53%
    14:00 +29°C° 1.2 mm 1 mps 652 mmHg 56%
    15:00 +28°C° 1.2 mm 2 mps 652 mmHg 59%
    16:00 +28°C° 1.2 mm 2 mps 652 mmHg 62%
    17:00 +26°C° 1.5 mm 2 mps 652 mmHg 71%
    18:00 +24°C° 1.5 mm 2 mps 652 mmHg 80%
    19:00 +22°C° 1.5 mm 1 mps 652 mmHg 89%
    20:00 +22°C° 0.3 mm 1 mps 652 mmHg 91%
    21:00 +20°C° 0.3 mm 2 mps 652 mmHg 92%
    22:00 +20°C° 0.3 mm 2 mps 653 mmHg 94%
    23:00 +20°C° 0.3 mm 2 mps 652 mmHg 94%
    Show more